Location: Hawks Ness
(60.2333°N, 1.1667°W)
Time: 01:10:45
(UTC+00:00)

Cosmos 1726 - Pass Details

Date: 29 January 2020
Orbit: 483 x 499 km, 82.5° (Epoch: 27 February)

Event Time Altitude Azimuth Distance (km) Brightness Sun altitude
Exits shadow 04:55:23 28° 27° (NNE) 957 3.8 -25.8°
Drops below altitude 10° 04:57:14 10° 19° (NNE) 1,682 5.1 -25.6°
Sets 04:59:21 0° 16° (NNE) 2,567 6.0 -25.3°
